Location: Bo?a Wola
(50.4192°N, 19.7966°E)
Time: 11:28:16
(UTC+00:00)

Meteor 1-27 - Pass Details

Date: 15 June 2024
Orbit: 837 x 891 km, 81.3° (Epoch: 16 July)

Event Time Altitude Azimuth Distance (km) Brightness Sun altitude
Rises 01:05:34 0° 345° (NNW) 3,515 8.1 -9.7°
Reaches altitude 10° 01:08:04 10° 342° (NNW) 2,569 7.3 -9.4°
Maximum altitude 01:13:48 60° 264° (W) 1,012 4.4 -8.9°
Drops below altitude 10° 01:19:27 10° 186° (S) 2,528 6.2 -8.4°
Enters shadow 01:20:41 - 184° (S) 2,992 6.5 -8.3°
